| time (UTC) | temp C | wind direction | speed KPH | gust KPH | rain 1hr cm | rain 24hr cm | rain mn cm | humidity % | barometer mb |
| 20260503193004 | 10 | 350 | 3.2 | 9.7 | 0.00 | 0.00 | 0.00 | 86 | 1007.6 |
| 20260503191504 | 11 | 12 | 6.4 | 11.3 | 0.00 | 0.00 | 0.00 | 86 | 1007.7 |
| 20260503181505 | 11 | 356 | 8.0 | 11.3 | 0.00 | 0.00 | 0.00 | 83 | 1007.4 |
| 20260503180004 | 12 | 353 | 6.4 | 11.3 | 0.00 | 0.00 | 0.00 | 82 | 1007.0 |
| 20260503081504 | 19 | 240 | 8.0 | 16.1 | 0.00 | 0.00 | 0.00 | 57 | 1008.2 |
| 20260503071505 | 17 | 206 | 4.8 | 16.1 | 0.00 | 0.00 | 0.00 | 60 | 1008.2 |
| 20260503054504 | 15 | 191 | 4.8 | 16.1 | 0.00 | 0.00 | 0.00 | 67 | 1008.7 |
| 20260503053004 | 14 | 206 | 4.8 | 9.7 | 0.00 | 0.00 | 0.00 | 68 | 1008.8 |
| 20260503044503 | 13 | 186 | 4.8 | 8.0 | 0.00 | 0.00 | 0.00 | 71 | 1008.8 |
| 20260503041504 | 12 | 204 | 3.2 | 8.0 | 0.00 | 0.00 | 0.00 | 71 | 1008.6 |
| 20260503040004 | 12 | 182 | 3.2 | 8.0 | 0.00 | 0.00 | 0.00 | 72 | 1008.6 |
| 20260503034504 | 12 | 174 | 1.6 | 4.8 | 0.00 | 0.00 | 0.00 | 73 | 1008.7 |
| 20260503031505 | 12 | 173 | 1.6 | 3.2 | 0.00 | 0.00 | 0.00 | 70 | 1008.7 |
| 20260503030013 | 13 | 189 | 1.6 | 4.8 | 0.00 | 0.00 | 0.00 | 68 | 1008.7 |
| 20260503024504 | 13 | 190 | 1.6 | 4.8 | 0.00 | 0.00 | 0.00 | 67 | 1009.0 |
| 20260503021504 | 14 | 182 | 3.2 | 8.0 | 0.00 | 0.00 | 0.00 | 65 | 1009.0 |
| 20260503014504 | 14 | 175 | 3.2 | 8.0 | 0.00 | 0.00 | 0.00 | 65 | 1009.3 |
| 20260503001504 | 13 | 173 | 3.2 | 11.3 | 0.00 | 0.00 | 0.00 | 67 | 1009.9 |
| 20260502231503 | 13 | 192 | 1.6 | 8.0 | 0.00 | 0.00 | 0.00 | 69 | 1010.3 |
| 20260502230004 | 13 | 175 | 1.6 | 4.8 | 0.00 | 0.00 | 0.00 | 68 | 1010.6 |
| 20260502220004 | 14 | 184 | 3.2 | 9.7 | 0.00 | 0.00 | 0.00 | 66 | 1010.6 |
| 20260502214504 | 14 | 196 | 4.8 | 8.0 | 0.00 | 0.00 | 0.00 | 64 | 1010.7 |
| 20260502213005 | 15 | 182 | 3.2 | 12.9 | 0.00 | 0.00 | 0.00 | 62 | 1010.8 |
| 20260502201504 | 16 | 193 | 9.7 | 24.1 | 0.00 | 0.00 | 0.00 | 61 | 1011.3 |